Regional Weather Roundup
Issued by NWS

Home | Current Version | Previous Version | Graphics & Text | Print | Product List | Glossary On
Versions: 1 2 3 4 5 6 7 8 9 10 11 12 13 14 15 16 17 18 19 20 21 22 23 24 25 26 27 28 29 30 31 32 33 34 35 36 37 38 39 40 41 42 43 44 45 46 47 48 49 50
000
ASUS43 KBIS 230620
RWRND

NORTH DAKOTA REGIONAL WEATHER ROUNDUP
NATIONAL WEATHER SERVICE BISMARCK ND
100 AM CDT WED APR 23 2014

NOTE: "FAIR" INDICATES FEW OR NO CLOUDS BELOW 12,000 FEET WITH NO
SIGNIFICANT WEATHER AND/OR OBSTRUCTIONS TO VISIBILITY.


NDZ001>003-009>011-017-230700-
NORTHWEST NORTH DAKOTA

CITY           SKY/WX    TMP DP  RH WIND       PRES   REMARKS
WILLISTON      CLOUDY    54  32  43 E16G23    29.59F
6HR MIN TEMP:  54; 6HR MAX TEMP:  70;

MINOT          FAIR      48  33  56 E17       29.76F
MINOT AFB      FAIR      47  34  60 SE21G28   29.76F
$$

NDZ018>021-031>035-040>046-230700-
SOUTHWEST NORTH DAKOTA

CITY           SKY/WX    TMP DP  RH WIND       PRES   REMARKS
BISMARCK       MOCLDY    57  33  40 SE21G30   29.71F
6HR MIN TEMP:  53; 6HR MAX TEMP:  66;

DICKINSON      CLOUDY    53  31  42 SE22G30   29.56F
GARRISON         N/A     51  34  52 E24G32    29.70F
6HR MIN TEMP:  50; 6HR MAX TEMP:  65;

HETTINGER ARPT CLOUDY    53  31  42 E18G28    29.57S
$$

NDZ004>008-012>016-024-026-027-054-230700-
NORTHEAST NORTH DAKOTA

CITY           SKY/WX    TMP DP  RH WIND       PRES   REMARKS
GRAND FORKS    FAIR      47  27  45 SE14      29.97S
GRND FRKS AFB  FAIR      44  28  53 SE10      29.96F
DEVILS LAKE    FAIR      45  30  57 SE16      29.89F
$$

NDZ022-023-025-028>030-036>039-047>053-230700-
SOUTHEAST NORTH DAKOTA

CITY           SKY/WX    TMP DP  RH WIND       PRES   REMARKS
FARGO          FAIR      49  31  49 SE16      29.95F
6HR MIN TEMP:  49; 6HR MAX TEMP:  62;

JAMESTOWN      FAIR      48  34  58 SE21      29.86F
$$




USA.gov is the U.S. government's official web portal to all federal, state and local government web resources and services.